State College, PA

9:22 PM EDT on April 23, 2018 (GMT -0400)
University Park

Weather History for KUNV - May, 2013

Change the Weather History Date:

Saturday, May 4, 2013

  Actual Average Record
Temperature  
Mean Temperature 56 °F -  
Max Temperature 68 °F 64 °F 89 °F (1949)
Min Temperature 45 °F 42 °F 30 °F (1926)
Degree Days  
Heating Degree Days 8    
Growing Degree Days 6 (Base 50)    
Moisture  
Dew Point 39 °F    
Average Humidity 55    
Maximum Humidity 75    
Minimum Humidity 33    
Precipitation  
Precipitation 0.00 in - - ()
Sea Level Pressure  
Sea Level Pressure 30.25 in    
Wind  
Wind Speed 4 mph (SE)    
Max Wind Speed 15 mph    
Max Gust Speed 17 mph    
Visibility 10 miles    
Events      
Averages and records for this station are not official NWS values.
T = Trace of Precipitation, MM = Missing Value Source: NWS Daily Summary

Daily Weather History Graph

Daily Weather History Graph

Search for Another Location

Airport or City:

Astronomy

May. 04, 2013 Rise Set
Actual Time 6:05 AM EDT 8:11 PM EDT
Civil Twilight 5:35 AM EDT 8:41 PM EDT
Nautical Twilight 4:58 AM EDT 9:18 PM EDT
Astronomical Twilight 4:18 AM EDT 9:58 PM EDT
Moon 3:05 AM EDT (5/4) 3:04 PM EDT (5/4)
Length of Visible Light 15h 05m
Length of Day
14h 05m
Waning Crescent, 27% of the Moon is Illuminated
May 4
Waning Crescent
May 9
New
May 18
First Quarter
May 25
Full
May 31
Last Quarter

Hourly Weather History & Observations

Time (EDT) Temp. Dew Point Humidity Pressure Visibility Wind Dir Wind Speed Gust Speed Precip Events Conditions
12:15 AM 53.8 °F 35.6 °F 50% 30.32 in 10.0 mi ESE 4.6 mph - N/A   Clear
12:35 AM 52.9 °F 36.0 °F 53% 30.32 in 10.0 mi East 3.5 mph - N/A   Clear
12:55 AM 52.2 °F 37.0 °F 56% 30.32 in 10.0 mi ESE 3.5 mph - N/A   Clear
1:15 AM 51.4 °F 37.6 °F 59% 30.31 in 10.0 mi Calm Calm - N/A   Clear
1:35 AM 52.0 °F 38.5 °F 60% 30.31 in 10.0 mi Calm Calm - N/A   Clear
1:55 AM 50.9 °F 38.7 °F 63% 30.30 in 10.0 mi Calm Calm - N/A   Clear
2:15 AM 49.8 °F 38.3 °F 65% 30.30 in 10.0 mi Calm Calm - N/A   Clear
2:35 AM 48.6 °F 38.3 °F 68% 30.29 in 10.0 mi Calm Calm - N/A   Clear
2:55 AM 48.4 °F 38.8 °F 70% 30.29 in 10.0 mi Calm Calm - N/A   Clear
3:15 AM 47.5 °F 38.1 °F 70% 30.29 in 10.0 mi Calm Calm - N/A   Clear
3:35 AM 48.9 °F 38.7 °F 68% 30.28 in 10.0 mi Calm Calm - N/A   Clear
3:55 AM 47.1 °F 38.1 °F 71% 30.27 in 10.0 mi Calm Calm - N/A   Clear
4:15 AM 46.2 °F 37.6 °F 72% 30.27 in 10.0 mi Calm Calm - N/A   Clear
4:35 AM 45.5 °F 38.1 °F 75% 30.27 in 10.0 mi Calm Calm - N/A   Clear
4:55 AM 46.8 °F 38.1 °F 72% 30.27 in 10.0 mi Calm Calm - N/A   Clear
5:15 AM 46.0 °F 36.7 °F 70% 30.27 in 10.0 mi Calm Calm - N/A   Clear
5:35 AM 45.3 °F 36.0 °F 70% 30.28 in 10.0 mi Calm Calm - N/A   Clear
5:53 AM 46.4 °F 35.6 °F 66% 30.28 in 10.0 mi Calm Calm - N/A   Clear
6:53 AM 46.4 °F 37.4 °F 71% 30.29 in 10.0 mi Calm Calm - N/A   Clear
7:53 AM 50.0 °F 39.2 °F 66% 30.31 in 10.0 mi ENE 4.6 mph - N/A   Clear
8:53 AM 53.6 °F 41.0 °F 62% 30.30 in 10.0 mi SE 5.8 mph - N/A   Clear
9:53 AM 55.4 °F 42.8 °F 63% 30.29 in 10.0 mi ESE 6.9 mph - N/A   Scattered Clouds
10:53 AM 59.0 °F 42.8 °F 55% 30.29 in 10.0 mi SE 9.2 mph - N/A   Scattered Clouds
11:53 AM 62.6 °F 42.8 °F 48% 30.27 in 10.0 mi ESE 13.8 mph - N/A   Partly Cloudy
12:53 PM 64.4 °F 42.8 °F 45% 30.26 in 10.0 mi ESE 11.5 mph - N/A   Partly Cloudy
1:53 PM 66.2 °F 41.0 °F 40% 30.24 in 10.0 mi SE 9.2 mph 17.3 mph N/A   Partly Cloudy
2:53 PM 68.0 °F 39.2 °F 35% 30.22 in 10.0 mi ESE 9.2 mph - N/A   Partly Cloudy
3:53 PM 68.0 °F 39.2 °F 35% 30.20 in 10.0 mi SE 9.2 mph - N/A   Partly Cloudy
4:53 PM 68.0 °F 39.2 °F 35% 30.18 in 10.0 mi SE 15.0 mph - N/A   Scattered Clouds
5:53 PM 68.0 °F 37.4 °F 33% 30.17 in 10.0 mi SE 11.5 mph - N/A   Scattered Clouds
6:53 PM 66.2 °F 37.4 °F 35% 30.13 in 10.0 mi SE 9.2 mph - N/A   Scattered Clouds
7:53 PM 64.4 °F 37.4 °F 37% 30.17 in 10.0 mi ESE 9.2 mph - N/A   Scattered Clouds
8:53 PM 62.6 °F 39.2 °F 42% 30.18 in 10.0 mi SE 5.8 mph - N/A   Scattered Clouds
9:15 PM 61.3 °F 39.4 °F 44% 30.19 in 10.0 mi South 3.5 mph - N/A   Clear
9:35 PM 59.9 °F 39.6 °F 47% 30.19 in 10.0 mi South 4.6 mph - N/A   Clear
9:55 PM 59.5 °F 39.7 °F 48% 30.20 in 10.0 mi South 5.8 mph - N/A   Clear
10:15 PM 59.2 °F 38.8 °F 47% 30.20 in 10.0 mi South 6.9 mph - N/A   Clear
10:35 PM 59.2 °F 38.7 °F 47% 30.20 in 10.0 mi South 5.8 mph - N/A   Clear
10:55 PM 59.0 °F 38.5 °F 47% 30.20 in 10.0 mi South 3.5 mph - N/A   Clear
11:15 PM 58.6 °F 38.3 °F 47% 30.20 in 10.0 mi SSE 3.5 mph - N/A   Clear
11:35 PM 58.3 °F 37.9 °F 47% 30.20 in 10.0 mi South 3.5 mph - N/A   Clear
11:55 PM 58.3 °F 37.4 °F 46% 30.20 in 10.0 mi South 3.5 mph - N/A   Clear